Overview Statistics Trail Chart Weather Telemetry Raw packets
 

This is the latest recevied weather packets stored in our database for station/object ALANSN-2. If no packets are shown the sender has not sent any weather packets the latest 10 day(s).

<< 107 108 109 110 111 112 113 >>
Time Temp. Humidity Pressure Rain* Wind** Luminosity Snow
1787754420 17.78° C 99% 1021.2 hPa 0 mm - 107 W/m² -
1787754120 17.78° C 99% 1021.2 hPa 0 mm - 145 W/m² -
1787753820 17.22° C 99% 1021.3 hPa 0 mm - 78 W/m² -
1787753520 17.22° C 99% 1021.5 hPa 0 mm - 63 W/m² -
1787753220 17.22° C 99% 1021.4 hPa 0 mm - 47 W/m² -
1787752920 17.22° C 99% 1021.7 hPa 0 mm - 99 W/m² -
1787752621 16.67° C 99% 1021.9 hPa 0 mm - 118 W/m² -
1787752320 16.67° C 99% 1021.9 hPa 0 mm - 111 W/m² -
1787752020 16.67° C 99% 1021.9 hPa 1.27 mm - 73 W/m² -
1787751720 16.67° C 99% 1021.9 hPa 1.27 mm - 73 W/m² -
1787751420 17.22° C 98% 1021.8 hPa 1.27 mm - 47 W/m² -
1787751119 17.78° C 96% 1022.4 hPa 1.78 mm - 46 W/m² -
1787750821 17.78° C 96% 1022.4 hPa 1.78 mm - 46 W/m² -
1787750520 17.22° C 98% 1022.3 hPa 3.05 mm - 27 W/m² -
1787750220 16.11° C 99% 1022.5 hPa 0 mm - 12 W/m² -
1787749920 16.11° C 99% 1022.5 hPa 0 mm - 12 W/m² -
1787749620 16.11° C 98% 1022.4 hPa 0 mm - 23 W/m² -
1787749320 16.11° C 99% 1022.8 hPa 0 mm - 33 W/m² -
1787749020 16.11° C 99% 1022.8 hPa 0 mm - 33 W/m² -
1787748720 16.11° C 99% 1022.4 hPa 0 mm - 50 W/m² -
1787748421 16.11° C 99% 1022.8 hPa 0 mm - 30 W/m² -
1787748118 16.11° C 99% 1022.8 hPa 0 mm - 30 W/m² -
1787747820 16.67° C 98% 1022.7 hPa 0 mm - 32 W/m² -
1787747519 16.67° C 97% 1022.7 hPa 1.78 mm - 12 W/m² -
1787747217 16.67° C 97% 1022.7 hPa 1.78 mm - 12 W/m² -

* Rain latest hour (hover to see other rain measurements)
** Current wind speed in m/s (hover to see current wind gust speed)